📊 Raw Sensor Data

Showing records 45826 to 45850 of 85,060 total

ID Distance (ft) Battery V Battery A Int Temp (°F) Int Humid (%) Ext Temp (°F) Solar V RSSI SNR Time Stamp
39247 -- 3.95 -5 50 42 52 0.00 -75 8 04/30/2025 02:45 AM
39246 -- 3.95 -5 50 42 51 0.00 -74 7 04/30/2025 02:30 AM
39245 -- 3.95 -5 50 42 52 0.00 -74 8 04/30/2025 02:15 AM
39244 -- 4.01 -5 51 42 54 0.10 -74 8 04/30/2025 01:45 AM
39243 -- 3.95 -5 51 43 54 0.00 -74 8 04/30/2025 01:31 AM
39242 -- 3.95 -5 51 43 54 0.00 -74 8 04/30/2025 01:16 AM
39241 -- 3.95 -5 52 43 53 0.00 -74 8 04/30/2025 01:00 AM
39240 15.4 3.95 -5 52 43 53 0.10 -74 8 04/30/2025 12:45 AM
39239 -- 4.01 -5 53 43 54 0.00 -74 8 04/30/2025 12:30 AM
39238 -- 3.96 -20 54 43 55 0.00 -73 8 04/30/2025 12:15 AM
39237 15.5 3.96 -5 55 43 56 0.00 -72 8 04/30/2025 12:00 AM
39236 -- 4.01 -5 56 43 57 0.00 -74 8 04/29/2025 11:45 PM
39235 -- 3.96 -5 56 43 58 0.10 -74 8 04/29/2025 11:30 PM
39234 15.3 3.96 -5 56 44 59 0.00 -73 8 04/29/2025 11:15 PM
39233 -- 4.02 -5 56 44 56 0.00 -73 8 04/29/2025 11:01 PM
39232 -- 4.02 -5 56 44 57 0.00 -72 8 04/29/2025 10:45 PM
39231 -- 3.96 -5 57 45 57 0.10 -73 9 04/29/2025 10:30 PM
39230 -- 4.02 -5 58 45 58 0.00 -74 8 04/29/2025 10:15 PM
39229 -- 3.96 -5 59 45 58 0.00 -72 8 04/29/2025 10:00 PM
39228 -- 3.97 -5 60 45 61 0.00 -73 8 04/29/2025 09:45 PM
39227 -- 3.97 -5 61 46 61 0.00 -73 8 04/29/2025 09:30 PM
39226 -- 4.02 -5 62 47 62 0.00 -73 8 04/29/2025 09:15 PM
39225 -- 3.97 -5 63 47 63 0.00 -72 7 04/29/2025 09:00 PM
39224 -- 3.97 -5 67 49 66 0.00 -72 8 04/29/2025 08:30 PM
39223 -- 3.97 -5 69 50 68 0.50 -72 7 04/29/2025 08:15 PM